Location: Laterina
(43.5167°N, 11.7167°E)
Time: 15:28:07
(UTC+00:00)

ATLAS 2AS CENTAUR R/B - Pass Details

Date: 24 September 2020
Orbit: 939 x 1273 km, 63.7° (Epoch: 19 October)

Event Time Altitude Azimuth Distance (km) Brightness Sun altitude
Rises 18:23:13 0° 198° (SSW) 4,168 5.9 -14.7°
Reaches altitude 10° 18:26:01 10° 194° (SSW) 3,228 5.2 -15.2°
Maximum altitude 18:33:41 57° 118° (ESE) 1,469 3.1 -16.5°
Drops below altitude 10° 18:41:23 10° 43° (NE) 3,246 5.0 -17.9°
Sets 18:44:12 0° 39° (NE) 4,193 5.6 -18.4°
